Content
SEND FEEDBACK

Daily
Averages
Monthly
Summary
United States of America

NORTH REDWOOD, MINNESOTA


Home > North America > United States > Minnesota
Elevation: 1024 feet     Latitude: 44 18N     Longitude: 095 27W

WEATHER
 
SELECT A DAY
Number of Records: 466,083;   Date Range: 1/1/95 - 9/30/14
 
SHARE

PRINT THIS DATA

[ ← Previous Day ]
WEATHER ALMANAC - FEBRUARY 13, 2013
[ Next Day → ]
[ °C ]   °F
Weather ElementAverageHighLow
Temperature29.4 °F39.2 °F (1:53 pm)14 °F (2:33 am)
Dewpoint24.4 °F33.8 °F (6:52 pm)10.4 °F (2:33 am)
Humidity82 %93 % (5:13 am)70 % (11:33 am)
Barometer29.68 in29.81 in (12:33 am)29.57 in (7:33 pm)
Wind Speed7.9 mph20.7 mph (11:33 pm)
Wind Gust26.5 mph (11:33 pm)
Weather ElementAverage
Visibility9.8 mi
Wind DirectionWSW (236.2 °)

Weather ElementTotal
Precipitation---
Heating Degree Days38.4 (Base 65)
Averaged from 69 records on February 13, 2013
WEATHER CONDITIONS BREAKOUT
WIND DIRECTION BREAKOUT
WEATHER BY HOUR - FEBRUARY 13, 2013
[ °C ]   °F
Local TimeTemperatureDewpointHumidityBarometerVisibilityWind DirectionWind SpeedGust SpeedPrecipitationEventsConditions
12:33 AM19.4 °F15.8 °F86 %29.81 in10.0 miWest (280°)10.4 mphClear
12:52 AM17.6 °F14.0 °F86 %29.80 in10.0 miWest (280°)9.2 mphClear
1:13 AM17.6 °F12.2 °F79 %29.80 in10.0 miWest (280°)8.1 mphClear
1:33 AM17.6 °F12.2 °F79 %29.80 in10.0 miWest (280°)10.4 mphClear
1:53 AM17.6 °F12.2 °F79 %29.80 in10.0 miWNW (290°)9.2 mphClear
2:13 AM15.8 °F12.2 °F86 %29.79 in10.0 miWest (270°)6.9 mphClear
2:33 AM14.0 °F10.4 °F86 %29.79 in10.0 miWest (260°)4.6 mphClear
2:53 AM14.0 °F10.4 °F86 %29.79 in10.0 miWest (260°)4.6 mphScattered Clouds
3:13 AM17.6 °F14.0 °F86 %29.79 in10.0 miWest (260°)4.6 mphMostly Cloudy
3:33 AM15.8 °F12.2 °F86 %29.78 in10.0 miWest (260°)4.6 mphMostly Cloudy
3:53 AM15.8 °F12.2 °F86 %29.77 in10.0 miWSW (240°)5.8 mphScattered Clouds
4:13 AM17.6 °F12.2 °F79 %29.77 in10.0 miWSW (250°)4.6 mphClear
4:32 AM15.8 °F12.2 °F86 %29.77 in10.0 miWSW (240°)3.5 mphScattered Clouds
4:53 AM15.8 °F12.2 °F86 %29.77 in10.0 miWest (260°)3.5 mphMostly Cloudy
5:13 AM17.6 °F15.8 °F93 %29.76 in10.0 miWSW (240°)4.6 mphOvercast
5:32 AM19.4 °F17.6 °F93 %29.76 in10.0 miSW (230°)4.6 mphOvercast
5:53 AM21.2 °F17.6 °F86 %29.75 in10.0 miCalmOvercast
6:13 AM21.2 °F19.4 °F93 %29.75 in10.0 miSW (230°)3.5 mphOvercast
6:32 AM23.0 °F19.4 °F86 %29.74 in10.0 miSSW (210°)4.6 mphOvercast
6:53 AM21.2 °F17.6 °F86 %29.74 in10.0 miSW (220°)8.1 mphScattered Clouds
7:13 AM24.8 °F19.4 °F80 %29.74 in10.0 miSW (220°)6.9 mphMostly Cloudy
7:32 AM24.8 °F21.2 °F86 %29.74 in10.0 miSSW (210°)5.8 mphMostly Cloudy
7:53 AM24.8 °F21.2 °F86 %29.73 in10.0 miSSW (210°)8.1 mphOvercast
8:13 AM24.8 °F21.2 °F86 %29.73 in10.0 miSW (220°)6.9 mphOvercast
8:32 AM23.0 °F19.4 °F86 %29.73 in10.0 miSW (220°)8.1 mphMostly Cloudy
8:53 AM23.0 °F19.4 °F86 %29.73 in10.0 miSW (230°)5.8 mphClear
9:13 AM24.8 °F19.4 °F80 %29.72 in10.0 miSW (230°)9.2 mphClear
9:32 AM26.6 °F21.2 °F80 %29.71 in10.0 miSW (230°)8.1 mphClear
9:53 AM28.4 °F21.2 °F74 %29.71 in10.0 miWSW (240°)4.6 mphClear
10:13 AM28.4 °F24.8 °F86 %29.70 in10.0 miSW (230°)4.6 mphClear
10:33 AM30.2 °F24.8 °F80 %29.71 in10.0 miWSW (240°)4.6 mphClear
11:13 AM33.8 °F26.6 °F75 %29.71 in10.0 miWSW (240°)4.6 mphClear
11:33 AM35.6 °F26.6 °F70 %29.70 in10.0 miWSW (240°)3.5 mphClear
11:53 AM37.4 °F28.4 °F70 %29.69 in10.0 miCalmClear
12:13 PM37.4 °F28.4 °F70 %29.68 in10.0 miSSW (200°)8.1 mphClear
12:53 PM37.4 °F28.4 °F70 %29.66 in10.0 miSSW (210°)8.1 mphScattered Clouds
1:12 PM37.4 °F28.4 °F70 %29.66 in10.0 miSSW (210°)8.1 mphMostly Cloudy
1:33 PM37.4 °F30.2 °F75 %29.65 in10.0 miSW (220°)5.8 mphMostly Cloudy
1:53 PM39.2 °F30.2 °F70 %29.64 in10.0 miSSW (210°)6.9 mphScattered Clouds
2:12 PM37.4 °F30.2 °F75 %29.63 in10.0 miSSW (210°)6.9 mphScattered Clouds
2:33 PM37.4 °F30.2 °F75 %29.63 in10.0 miSW (220°)6.9 mphMostly Cloudy
2:53 PM37.4 °F30.2 °F75 %29.64 in10.0 miWSW (240°)10.4 mphOvercast
3:12 PM37.4 °F30.2 °F75 %29.63 in10.0 miSW (230°)6.9 mphOvercast
3:33 PM37.4 °F30.2 °F75 %29.62 in10.0 miSW (220°)9.2 mphOvercast
3:53 PM37.4 °F30.2 °F75 %29.61 in10.0 miSSW (210°)6.9 mphOvercast
4:12 PM37.4 °F30.2 °F75 %29.61 in10.0 miSSW (210°)6.9 mphMostly Cloudy
4:33 PM37.4 °F30.2 °F75 %29.61 in10.0 miSSW (200°)5.8 mphClear
4:53 PM37.4 °F30.2 °F75 %29.60 in10.0 miSouth (170°)4.6 mphMostly Cloudy
5:12 PM37.4 °F30.2 °F75 %29.61 in10.0 miSW (230°)6.9 mphMostly Cloudy
5:33 PM35.6 °F30.2 °F81 %29.61 in10.0 miSW (230°)5.8 mphRainLight Rain
5:53 PM37.4 °F32.0 °F81 %29.60 in10.0 miWSW (240°)11.5 mphRainLight Rain
6:13 PM35.6 °F32.0 °F87 %29.59 in7.0 miWSW (240°)10.4 mphRainLight Rain
6:33 PM35.6 °F32.0 °F87 %29.59 in10.0 miSW (230°)6.9 mphRainLight Rain
6:52 PM35.6 °F33.8 °F93 %29.59 in10.0 miSW (230°)8.1 mphRainLight Rain
7:13 PM35.6 °F33.8 °F93 %29.58 in10.0 miSW (230°)6.9 mphRainLight Rain
7:33 PM35.6 °F33.8 °F93 %29.57 in10.0 miWSW (240°)8.1 mphLight Drizzle
7:52 PM37.4 °F32.0 °F81 %29.57 in10.0 miWest (260°)11.5 mphScattered Clouds
8:13 PM35.6 °F32.0 °F87 %29.57 in10.0 miWest (260°)8.1 mphMostly Cloudy
8:33 PM35.6 °F32.0 °F87 %29.57 in10.0 miWest (260°)9.2 mphMostly Cloudy
8:52 PM37.4 °F32.0 °F81 %29.57 in10.0 miWest (260°)12.7 mphMostly Cloudy
9:13 PM37.4 °F32.0 °F81 %29.57 in10.0 miWest (280°)13.8 mphOvercast
9:33 PM37.4 °F32.0 °F81 %29.57 in10.0 miWest (280°)11.5 mphMostly Cloudy
9:52 PM35.6 °F32.0 °F87 %29.57 in7.0 miWest (280°)16.1 mph20.7 mphRainLight Rain
10:13 PM35.6 °F32.0 °F87 %29.57 in7.0 miWNW (290°)13.8 mphRainRain
10:33 PM35.6 °F32.0 °F87 %29.58 in7.0 miWNW (290°)12.7 mphScattered Clouds
10:52 PM35.6 °F32.0 °F87 %29.57 in10.0 miWest (280°)12.7 mphMostly Cloudy
11:13 PM35.6 °F32.0 °F87 %29.58 in10.0 miNW (310°)19.6 mphMostly Cloudy
11:33 PM35.6 °F30.2 °F81 %29.59 in10.0 miNW (310°)20.7 mph26.5 mphMostly Cloudy
11:52 PM33.8 °F30.2 °F87 %29.60 in10.0 miNW (310°)18.4 mph23.0 mphMostly Cloudy
Hourly data recorded from KULM, located miles away from North Redwood, Minnesota







STORIES FROM OUR PARTNERS